Torna al catalogo

CZ-3 R/B

AttivoHEO
NORAD 29517·ROCKET BODY·🇨🇳 China

Lanciato Oct 28, 2006 da Xichang Satellite Launch Center

Loading…

Prossimi Passaggi (prossime 24 ore)

TLE

AggiornatoSource: Space-Track

Epoca: Sep 14, 2026, 05:11 UTC

1 29517U 06048B   26257.21635861  .00000037  00000-0  26744-4 0  9993
2 29517  28.2348 313.5420 4034213 167.9798 205.6956  6.89904307399993

Traccia CZ-3 R/B in tempo reale con AllMySat

Download on the App Store